When you browse on this site, cookies collect data to enhance your experience and personalize the content and advertising you see.
Visit our Privacy Policy to learn more. By continuing to use the site, you agree to this use of cookies and data.
  • In Sweden
  • List of Countries
  • For 7 days
  • Water Temperature
  • Weather Map
  • Weather Widgets
  • user-avatar
    Login

    Hourly Weather Tirana

    Today, 21 September, Saturday

    Time Temperature Precipitation Wind Pressure Humidity
    00:00 +17°C° 0 mm 4 mps 758 mmHg 40%
    01:00 +17°C° 0 mm 4 mps 758 mmHg 38%
    02:00 +17°C° 0 mm 4 mps 758 mmHg 38%
    03:00 +15°C° 0 mm 4 mps 758 mmHg 38%
    04:00 +15°C° 0 mm 4 mps 759 mmHg 38%
    05:00 +15°C° 0 mm 4 mps 759 mmHg 37%
    06:00 +17°C° 0 mm 4 mps 759 mmHg 36%
    07:00 +18°C° 0 mm 4 mps 759 mmHg 35%
    08:00 +20°C° 0 mm 3 mps 759 mmHg 31%
    09:00 +24°C° 0 mm 3 mps 759 mmHg 27%
    10:00 +26°C° 0 mm 2 mps 759 mmHg 23%
    11:00 +27°C° 0 mm 3 mps 759 mmHg 23%
    12:00 +28°C° 0 mm 3 mps 759 mmHg 23%
    13:00 +29°C° 0 mm 4 mps 758 mmHg 23%
    14:00 +28°C° 0 mm 4 mps 758 mmHg 26%
    15:00 +27°C° 0 mm 5 mps 758 mmHg 29%
    16:00 +26°C° 0 mm 5 mps 758 mmHg 31%
    17:00 +23°C° 0 mm 5 mps 758 mmHg 37%
    18:00 +21°C° 0 mm 4 mps 758 mmHg 43%
    19:00 +19°C° 0 mm 3 mps 758 mmHg 49%
    20:00 +19°C° 0 mm 3 mps 758 mmHg 50%
    21:00 +19°C° 0 mm 2 mps 758 mmHg 50%
    22:00 +18°C° 0 mm 2 mps 758 mmHg 51%
    23:00 +18°C° 0 mm 2 mps 758 mmHg 49%

    Tomorrow, 22 September, Sunday

    Time Temperature Precipitation Wind Pressure Humidity
    00:00 +19°C° 0 mm 1 mps 758 mmHg 48%
    01:00 +19°C° 0 mm 1 mps 758 mmHg 47%
    02:00 +19°C° 0 mm 1 mps 758 mmHg 48%
    03:00 +18°C° 0 mm 1 mps 758 mmHg 48%
    04:00 +18°C° 0 mm 1 mps 758 mmHg 49%
    05:00 +19°C° 0 mm 1 mps 758 mmHg 47%
    06:00 +20°C° 0 mm 1 mps 758 mmHg 46%
    07:00 +21°C° 0 mm 1 mps 758 mmHg 45%
    08:00 +23°C° 0 mm 1 mps 757 mmHg 41%
    09:00 +25°C° 0 mm 1 mps 757 mmHg 37%
    10:00 +27°C° 0 mm 1 mps 757 mmHg 33%
    11:00 +28°C° 0 mm 2 mps 757 mmHg 33%
    12:00 +28°C° 0 mm 2 mps 757 mmHg 32%
    13:00 +29°C° 0 mm 2 mps 756 mmHg 32%
    14:00 +28°C° 0 mm 3 mps 756 mmHg 37%
    15:00 +27°C° 0 mm 3 mps 756 mmHg 43%
    16:00 +26°C° 0 mm 3 mps 755 mmHg 48%
    17:00 +25°C° 0 mm 2 mps 756 mmHg 55%
    18:00 +23°C° 0 mm 2 mps 756 mmHg 61%
    19:00 +21°C° 0 mm 2 mps 756 mmHg 67%
    20:00 +21°C° 0 mm 2 mps 756 mmHg 67%
    21:00 +21°C° 0 mm 2 mps 756 mmHg 66%
    22:00 +22°C° 0 mm 1 mps 756 mmHg 66%
    23:00 +20°C° 0 mm 2 mps 756 mmHg 65%

    Day after tomorrow, 23 September, Monday

    Time Temperature Precipitation Wind Pressure Humidity
    00:00 +20°C° 0 mm 2 mps 756 mmHg 65%
    01:00 +20°C° 0 mm 2 mps 756 mmHg 65%
    02:00 +20°C° 0.1 mm 2 mps 755 mmHg 67%
    03:00 +20°C° 0.1 mm 3 mps 755 mmHg 69%
    04:00 +20°C° 0.1 mm 4 mps 755 mmHg 71%
    05:00 +20°C° 0 mm 3 mps 755 mmHg 67%
    06:00 +21°C° 0 mm 3 mps 755 mmHg 62%
    07:00 +21°C° 0 mm 2 mps 755 mmHg 58%
    08:00 +24°C° 0 mm 2 mps 755 mmHg 53%
    09:00 +26°C° 0 mm 2 mps 755 mmHg 48%
    10:00 +28°C° 0 mm 1 mps 755 mmHg 43%
    11:00 +28°C° 0 mm 2 mps 754 mmHg 42%
    12:00 +29°C° 0 mm 2 mps 754 mmHg 42%
    13:00 +29°C° 0 mm 3 mps 753 mmHg 41%
    14:00 +29°C° 0 mm 3 mps 753 mmHg 45%
    15:00 +29°C° 0 mm 3 mps 753 mmHg 49%
    16:00 +28°C° 0 mm 4 mps 752 mmHg 53%
    17:00 +27°C° 0.5 mm 4 mps 752 mmHg 62%
    18:00 +25°C° 0.5 mm 4 mps 752 mmHg 71%
    19:00 +23°C° 0.5 mm 4 mps 752 mmHg 79%
    20:00 +23°C° 0.7 mm 4 mps 752 mmHg 80%
    21:00 +22°C° 0.7 mm 4 mps 753 mmHg 80%
    22:00 +22°C° 0.7 mm 4 mps 753 mmHg 80%
    23:00 +22°C° 1 mm 4 mps 752 mmHg 80%

    24 September, Tuesday

    Time Temperature Precipitation Wind Pressure Humidity
    00:00 +22°C° 1 mm 4 mps 752 mmHg 79%
    01:00 +22°C° 1 mm 4 mps 752 mmHg 79%
    02:00 +22°C° 0.8 mm 3 mps 752 mmHg 79%
    03:00 +22°C° 0.8 mm 3 mps 752 mmHg 79%
    04:00 +21°C° 0.8 mm 2 mps 751 mmHg 79%
    05:00 +23°C° 0.6 mm 2 mps 751 mmHg 77%
    06:00 +23°C° 0.6 mm 2 mps 751 mmHg 75%
    07:00 +24°C° 0.6 mm 2 mps 751 mmHg 74%
    08:00 +25°C° 0.3 mm 3 mps 751 mmHg 70%
    09:00 +26°C° 0.3 mm 3 mps 751 mmHg 66%
    10:00 +27°C° 0.3 mm 3 mps 751 mmHg 63%
    11:00 +28°C° 0.4 mm 4 mps 751 mmHg 62%
    12:00 +28°C° 0.4 mm 4 mps 751 mmHg 61%
    13:00 +28°C° 0.4 mm 4 mps 750 mmHg 61%
    14:00 +28°C° 0.3 mm 4 mps 750 mmHg 62%
    15:00 +27°C° 0.3 mm 3 mps 750 mmHg 64%
    16:00 +27°C° 0.3 mm 3 mps 750 mmHg 65%
    17:00 +26°C° 0.2 mm 2 mps 750 mmHg 70%
    18:00 +25°C° 0.2 mm 2 mps 750 mmHg 75%
    19:00 +23°C° 0.2 mm 2 mps 751 mmHg 80%
    20:00 +23°C° 0 mm 2 mps 751 mmHg 81%
    21:00 +23°C° 0 mm 2 mps 751 mmHg 82%
    22:00 +21°C° 0 mm 2 mps 751 mmHg 84%
    23:00 +21°C° 0 mm 2 mps 751 mmHg 84%

    25 September, Wednesday

    Time Temperature Precipitation Wind Pressure Humidity
    00:00 +21°C° 0 mm 2 mps 751 mmHg 85%
    01:00 +21°C° 0 mm 2 mps 751 mmHg 85%
    02:00 +20°C° 0 mm 2 mps 751 mmHg 85%
    03:00 +20°C° 0 mm 2 mps 751 mmHg 86%
    04:00 +20°C° 0 mm 2 mps 751 mmHg 86%
    05:00 +21°C° 0 mm 2 mps 751 mmHg 83%
    06:00 +21°C° 0 mm 2 mps 751 mmHg 80%
    07:00 +23°C° 0 mm 1 mps 751 mmHg 77%
    08:00 +24°C° 0 mm 2 mps 751 mmHg 72%
    09:00 +26°C° 0 mm 2 mps 752 mmHg 66%
    10:00 +27°C° 0 mm 2 mps 752 mmHg 60%
    11:00 +28°C° 0 mm 3 mps 752 mmHg 57%
    12:00 +28°C° 0 mm 4 mps 751 mmHg 54%
    13:00 +29°C° 0 mm 4 mps 751 mmHg 50%
    14:00 +28°C° 0 mm 4 mps 751 mmHg 52%
    15:00 +27°C° 0 mm 4 mps 751 mmHg 54%
    16:00 +27°C° 0 mm 4 mps 751 mmHg 56%
    17:00 +25°C° 0 mm 3 mps 751 mmHg 63%
    18:00 +24°C° 0 mm 2 mps 751 mmHg 70%
    19:00 +21°C° 0 mm 2 mps 752 mmHg 78%
    20:00 +22°C° 0 mm 1 mps 752 mmHg 76%
    21:00 +22°C° 0 mm 1 mps 752 mmHg 74%
    22:00 +20°C° 0 mm 0 mps 752 mmHg 72%
    23:00 +20°C° 0 mm 0 mps 752 mmHg 71%

    26 September, Thursday

    Time Temperature Precipitation Wind Pressure Humidity
    00:00 +19°C° 0 mm 0 mps 752 mmHg 71%
    01:00 +21°C° 0 mm 1 mps 752 mmHg 71%
    02:00 +21°C° 0 mm 1 mps 752 mmHg 70%
    03:00 +21°C° 0 mm 1 mps 752 mmHg 70%
    04:00 +20°C° 0 mm 1 mps 752 mmHg 69%
    05:00 +21°C° 0 mm 1 mps 752 mmHg 65%
    06:00 +22°C° 0 mm 1 mps 752 mmHg 61%
    07:00 +23°C° 0 mm 1 mps 752 mmHg 57%
    08:00 +25°C° 0 mm 1 mps 752 mmHg 51%
    09:00 +27°C° 0 mm 1 mps 752 mmHg 45%
    10:00 +29°C° 0 mm 1 mps 753 mmHg 39%
    11:00 +29°C° 0 mm 1 mps 752 mmHg 38%
    12:00 +30°C° 0 mm 1 mps 752 mmHg 37%
    13:00 +30°C° 0 mm 2 mps 752 mmHg 36%
    14:00 +30°C° 0 mm 2 mps 752 mmHg 38%
    15:00 +29°C° 0 mm 2 mps 752 mmHg 41%
    16:00 +29°C° 0 mm 1 mps 751 mmHg 43%
    17:00 +27°C° 0 mm 1 mps 752 mmHg 48%
    18:00 +26°C° 0 mm 1 mps 752 mmHg 53%
    19:00 +24°C° 0 mm 1 mps 752 mmHg 58%
    20:00 +24°C° 0 mm 1 mps 753 mmHg 59%
    21:00 +21°C° 0 mm 0 mps 753 mmHg 60%
    22:00 +21°C° 0 mm 0 mps 753 mmHg 61%
    23:00 +23°C° 0 mm 1 mps 753 mmHg 62%
    Show more